TimeEDT,TemperatureF,Dew PointF,Humidity,Sea Level PressureIn,VisibilityMPH,Wind Direction,Wind SpeedMPH,Gust SpeedMPH,PrecipitationIn,Events,Conditions,WindDirDegrees,DateUTC
12:52 AM,77.0,73.0,88,30.24,10.0,SSW,10.4,-,N/A,,Scattered Clouds,200,2013-07-04 04:52:00
1:52 AM,75.9,73.0,91,30.24,10.0,SSW,8.1,-,N/A,,Mostly Cloudy,200,2013-07-04 05:52:00
2:22 AM,75.2,73.4,94,30.23,10.0,SSW,8.1,-,N/A,,Mostly Cloudy,200,2013-07-04 06:22:00
2:52 AM,75.9,73.0,91,30.23,10.0,South,5.8,-,N/A,,Mostly Cloudy,190,2013-07-04 06:52:00
3:41 AM,75.2,73.4,94,30.22,10.0,SSW,8.1,-,N/A,,Mostly Cloudy,200,2013-07-04 07:41:00
3:52 AM,75.9,73.0,91,30.23,10.0,South,8.1,-,N/A,,Overcast,190,2013-07-04 07:52:00
4:38 AM,75.2,73.4,94,30.23,10.0,South,10.4,-,N/A,,Overcast,190,2013-07-04 08:38:00
4:52 AM,75.9,72.0,87,30.24,10.0,South,11.5,-,N/A,,Overcast,190,2013-07-04 08:52:00
5:03 AM,75.2,73.4,94,30.24,10.0,South,9.2,-,N/A,,Overcast,190,2013-07-04 09:03:00
5:12 AM,75.2,71.6,89,30.24,10.0,South,10.4,-,N/A,,Overcast,190,2013-07-04 09:12:00
5:52 AM,77.0,72.0,84,30.24,10.0,SSW,8.1,-,N/A,,Overcast,200,2013-07-04 09:52:00
6:04 AM,77.0,71.6,83,30.24,10.0,SSW,12.7,-,N/A,,Overcast,210,2013-07-04 10:04:00
6:52 AM,78.1,71.1,79,30.25,10.0,SSW,10.4,-,N/A,,Overcast,200,2013-07-04 10:52:00
7:52 AM,78.1,72.0,81,30.26,10.0,SSW,8.1,-,N/A,,Mostly Cloudy,200,2013-07-04 11:52:00
7:54 AM,78.8,71.6,78,30.26,10.0,SSW,9.2,-,N/A,,Overcast,210,2013-07-04 11:54:00
7:56 AM,78.8,71.6,78,30.26,10.0,SSW,8.1,-,N/A,,Overcast,210,2013-07-04 11:56:00
8:09 AM,78.8,71.6,78,30.26,10.0,SSW,11.5,-,N/A,,Overcast,200,2013-07-04 12:09:00
8:12 AM,78.8,71.6,78,30.27,10.0,SSW,11.5,-,N/A,,Overcast,200,2013-07-04 12:12:00
8:38 AM,78.8,71.6,78,30.27,10.0,SW,9.2,-,N/A,,Overcast,220,2013-07-04 12:38:00
8:52 AM,79.0,72.0,79,30.27,10.0,SW,6.9,-,N/A,,Overcast,230,2013-07-04 12:52:00
9:02 AM,78.8,71.6,78,30.27,10.0,SW,9.2,-,N/A,,Overcast,220,2013-07-04 13:02:00
9:29 AM,80.6,71.6,74,30.27,10.0,SW,10.4,-,N/A,,Mostly Cloudy,220,2013-07-04 13:29:00
9:33 AM,80.6,71.6,74,30.27,10.0,SW,11.5,-,N/A,,Mostly Cloudy,220,2013-07-04 13:33:00
9:52 AM,80.1,72.0,76,30.27,10.0,SW,11.5,-,N/A,,Overcast,230,2013-07-04 13:52:00
10:11 AM,80.6,71.6,74,30.27,10.0,SSW,11.5,-,N/A,,Overcast,210,2013-07-04 14:11:00
10:52 AM,82.0,73.0,74,30.27,10.0,South,8.1,-,N/A,,Mostly Cloudy,190,2013-07-04 14:52:00
11:10 AM,82.4,73.4,74,30.27,10.0,SSW,11.5,-,N/A,,Overcast,210,2013-07-04 15:10:00
11:13 AM,82.4,71.6,70,30.27,10.0,SSW,12.7,-,N/A,,Overcast,200,2013-07-04 15:13:00
11:52 AM,84.0,72.0,67,30.27,10.0,SSW,11.5,-,N/A,,Mostly Cloudy,210,2013-07-04 15:52:00
12:52 PM,84.9,73.0,67,30.25,10.0,South,11.5,-,N/A,,Mostly Cloudy,170,2013-07-04 16:52:00
1:52 PM,87.1,73.9,65,30.24,10.0,South,10.4,-,N/A,,Mostly Cloudy,180,2013-07-04 17:52:00
2:52 PM,87.1,72.0,61,30.23,10.0,South,12.7,-,N/A,,Mostly Cloudy,190,2013-07-04 18:52:00
3:52 PM,88.0,73.0,61,30.21,10.0,South,12.7,-,N/A,,Mostly Cloudy,180,2013-07-04 19:52:00
4:29 PM,89.6,71.6,55,30.20,10.0,SSW,13.8,-,N/A,,Scattered Clouds,200,2013-07-04 20:29:00
4:52 PM,89.1,70.0,53,30.19,10.0,South,16.1,19.6,N/A,,Scattered Clouds,180,2013-07-04 20:52:00
5:52 PM,88.0,71.1,57,30.18,10.0,South,13.8,-,N/A,,Partly Cloudy,180,2013-07-04 21:52:00
6:52 PM,87.1,70.0,57,30.19,10.0,South,11.5,-,N/A,,Scattered Clouds,180,2013-07-04 22:52:00
7:52 PM,86.0,71.1,61,30.20,10.0,South,9.2,-,N/A,,Scattered Clouds,180,2013-07-04 23:52:00
8:52 PM,84.9,71.1,63,30.19,10.0,South,10.4,-,N/A,,Scattered Clouds,170,2013-07-05 00:52:00
9:52 PM,82.9,72.0,69,30.22,10.0,South,11.5,-,N/A,,Partly Cloudy,180,2013-07-05 01:52:00
10:52 PM,81.0,72.0,74,30.22,10.0,South,11.5,-,N/A,,Scattered Clouds,170,2013-07-05 02:52:00
11:52 PM,81.0,73.0,77,30.23,10.0,South,8.1,-,N/A,,Clear,180,2013-07-05 03:52:00